SAUDISAT 1C

导读

SAUDISAT 1C是沙特阿拉伯发射的一颗业余无线电教育类卫星,于2002年12月20日在丘拉坦火箭航天场成功发射,国际编号为2002-058C,北美防空司令部编号27607。该卫星运行在近地点595.8公里、远地点667.7公里的近地轨道,轨道倾角64.6度,绕行周期约97.2分钟。它支持上行145.850MHz、下行436.795MHz通信,为航天教育与业余无线电爱好者提供实践平台。

基本信息
目录编号:
27607
目录名称:
SAUDISAT 1C
国际标识:
2002-058C
轨道中心:
EARTH
卫星名称:
SAUDISAT 1C
卫星全名:
--
卫星状态:
在轨 (已飞行8667 天)
发射日期:
2002-12-20 UTC
国别 :
(SA)
星等 :
--
该卫星已列入 空间交会检测服务 Space Conjunction Data Service (SCDS) ,当前飞行风险评估等级: 无高风险
轨道信息
数据来源 国际轨道数据
星历时间: 2026-09-10T23:42:59+0800
1天前
查看轨道信息
半长轴: 6997.367km
偏心率: 0.0072222
轨道倾角: 64.551°
近地点辐角 246.803°
升交点赤经 224.516°
平近点角 112.546°
近地点: 568.693km
远地点: 669.767km
周期: 97.087分钟
每日圈数: 14.832039
详细信息
使用方式:
暂无
2D轨道图
3D轨道图
轨道高度分析图
轨道倾角分析图
轨道综合分析图
查看轨道综合分析图
交会数据列表
事件ID 空间交会对象 最接近时刻(TCA) 交会距离 交会风险概率(CRP) 交会风险指数(CRI) 操作
CDM_260913-015602-760702-849326
2026-09-13T
01:56:28+0000
1.745 km
极远距离
4.193393E-6 低风险 0.47
CDM_260914-041302-760706-377221
BIOMASS (63772)
2026-09-14T
04:13:16+0000
2.600 km
极远距离
1.561612E-6 低风险 0.39
CDM_260912-201402-760702-848324
2026-09-12T
20:14:42+0000
2.919 km
极远距离
1.392678E-6 低风险 0.38
CDM_260912-142902-760706-555421
2026-09-12T
14:29:34+0000
2.807 km
极远距离
1.278428E-6 低风险 0.37
CDM_260912-140902-760705-681821
2026-09-12T
14:09:20+0000
2.339 km
极远距离
6.372769E-7 极低风险 0.31
与全量物体交会距离演化趋势
与全量物体交会风险概率演化趋势